Location: Kolonia Suchowola
(51.1932°N, 19.0874°E)
Time: 19:45:21
(UTC+00:00)

Daily predictions for brighter satellites

Satellite Brightness Start Highest point End
(mag) Time Altitude Azimuth Time Altitude Azimuth Time Altitude Azimuth
Cosmos 1725 Rocket 4.3 19:35:27 10° N 19:41:40 57° ENE 19:47:52 10° SSE
Cosmos 2084 Rocket 3.8 19:39:59 10° NW 19:44:03 53° SW 19:48:02 10° SSE
SPOT 3 Rocket 3.7 19:39:31 10° SSE 19:44:36 63° ENE 19:49:43 10° N
Cosmos 2219 3.9 19:39:50 10° S 19:45:00 36° ESE 19:50:11 10° NE
GEOS 3 Rocket 3.9 19:40:29 10° NE 19:45:43 76° NW 19:51:00 10° SW
USA 290 3.7 19:44:51 10° SSE 19:47:13 19° ESE 19:49:37 10° NE
Cosmos 1953 3.4 19:44:15 10° N 19:47:33 28° ENE 19:50:48 10° SE
Helios 1A 2.9 19:43:38 10° NNE 19:47:37 83° WNW 19:51:32 10° SSW
SL-14 R/B 3.3 19:43:52 10° SSW 19:47:47 84° W 19:51:44 10° N
USA 59 Rocket 2.0 19:47:56 10° NNW 19:50:05 16° NNE 19:52:30 10° ENE
USA 305 2.4 19:47:33 10° WSW 19:51:31 89° SSE 19:54:53 10° ENE
NOSS 3 (A) 4.2 19:49:46 10° NW 19:52:10 89° SW 19:55:17 10° SE
SAR-Lupe-2 3.6 19:50:07 10° SSE 19:53:43 86° W 19:57:21 10° NNW
Cosmos 2237 Rocket 3.8 19:52:33 10° NW 19:57:21 29° WSW 20:02:09 10° SSW
Spot 2 Rocket 3.8 19:52:48 10° S 19:57:51 71° WSW 20:02:58 10° NNW
ERS-1 Rocket 4.0 19:54:37 10° S 19:59:22 42° W 20:04:09 10° NNW
Iridium 51 4.4 19:57:46 10° N 20:01:21 50° E 20:04:48 10° SSE
Cosmos 1633 Rocket 4.4 20:00:15 10° NNW 20:04:14 37° W 20:08:12 10° SSW
Cosmos 2123 Rocket 4.0 19:59:05 10° S 20:05:19 73° E 20:11:32 10° NNE
USA 307 4.3 20:05:05 10° SE 20:05:48 11° SE 20:06:41 10° ESE
Cosmos 1459 Rocket 4.3 19:59:51 10° NNW 20:06:11 73° W 20:12:31 10° S
COSMOS 2455 4.4 20:06:52 10° NW 20:11:55 28° WSW 20:16:55 10° SSW
DNEPR-1 R/B 4.0 20:13:03 10° SSW 20:18:54 66° SE 20:23:44 10° NE
NOSS 3-1 (C) 4.1 20:12:30 10° NW 20:19:20 74° NE 20:27:53 10° SE
Meteor 2-21 4.5 20:13:52 10° S 20:20:01 77° E 20:26:08 10° NNE
Okean-O 4.5 20:17:15 10° SSW 20:20:56 26° W 20:24:38 10° NW
Terra 3.4 20:16:57 10° SSW 20:21:06 30° W 20:25:16 10° NNW
Cosmos 1844 Rocket 4.2 20:20:02 11° SE 20:23:34 19° E 20:27:24 10° ENE
Cosmos 1802 Rocket 4.3 20:17:50 10° NNW 20:24:15 71° W 20:30:34 10° S
Cosmos 1140 Rocket 3.8 20:21:27 10° S 20:26:19 45° ESE 20:31:11 10° NE
SL-08 R/B 4.5 20:20:28 10° N 20:26:35 88° W 20:32:41 10° S
Cosmos 2297 Rocket 4.1 20:25:30 10° WSW 20:30:38 34° NW 20:35:48 10° NNE
Cosmos 2061 Rocket 4.0 20:25:07 10° N 20:31:27 82° E 20:37:23 11° SSE
Cosmos 2016 Rocket 4.3 20:28:58 10° NNW 20:35:16 69° W 20:41:35 10° S
GP-B 3.1 20:32:47 10° N 20:37:11 73° E 20:41:10 12° S
Cosmos 1933 Rocket 4.2 20:34:57 10° NNW 20:39:12 50° W 20:43:24 10° S
Cosmos 1437 Rocket 3.6 20:36:16 10° SSW 20:39:41 44° WNW 20:43:11 10° N
Lacrosse 4 Rocket 3.7 20:39:00 10° WNW 20:41:36 16° WSW 20:44:13 10° SW
Aureole 3 Rocket 4.0 20:39:23 10° NNE 20:42:11 25° ENE 20:44:47 13° SE
Cosmos 2228 Rocket 4.1 20:41:03 15° SE 20:44:08 31° E 20:48:03 10° NNE
Cosmos 1733 Rocket 3.4 20:43:16 10° N 20:47:36 55° ENE 20:50:53 16° SSE
ATLAS 3B R/B 4.3 20:42:05 10° NW 20:49:24 39° NNE 20:56:37 10° E
Cosmos 1703 3.6 20:47:58 18° SSE 20:50:12 39° E 20:53:29 10° NNE
Cosmos 1869 Rocket 4.1 20:49:27 10° NNW 20:53:44 54° W 20:57:38 12° S
SL-16 R/B 3.4 20:49:26 10° NW 20:54:27 33° WSW 20:59:28 10° S
SL-4 R/B 2.1 20:50:30 10° SW 20:54:31 50° SSE 20:58:26 10° E
Cosmos 540 Rocket 3.7 20:52:45 10° NNW 20:57:51 61° ENE 21:01:54 16° SE
Cosmos 407 Rocket 3.8 20:53:44 14° S 20:57:58 47° ESE 21:02:51 10° NE
Cosmos 2263 Rocket 2.6 20:52:37 10° SW 20:58:16 68° WNW 21:03:59 10° NNE
Ariane Rocket 4.2 20:54:19 10° SSW 20:59:00 36° W 21:03:42 10° NNW
Cosmos 2227 Rocket 3.7 20:54:09 10° WSW 20:59:27 40° NW 21:04:47 10° NNE
Okean 1-7 3.9 20:58:56 17° SE 21:01:24 32° E 21:05:07 10° NNE
Cosmos 546 4.5 21:00:11 10° W 21:03:59 84° S 21:07:49 10° E
ALOS 2 4.0 21:02:11 12° ESE 21:05:36 28° ENE 21:09:21 10° N
NOSS 3-1 (A) 4.1 21:02:56 10° NW 21:09:49 75° NE 21:18:18 10° SE
ASTEX 1 3.6 21:06:04 10° NNE 21:10:58 56° E 21:14:28 18° SSE
Cosmos 2344 4.0 21:03:52 10° NW 21:11:49 79° SW 21:21:15 14° SSE
NOSS 2-1 (C) 4.0 21:09:20 10° NW 21:12:32 45° NE 21:16:32 10° ESE
Cosmos 1943 3.4 21:07:14 10° NW 21:12:52 63° WSW 21:17:07 18° S
Cosmos 1464 Rocket 4.3 21:06:57 10° N 21:13:10 58° ENE 21:17:54 17° SSE
Cosmos 2292 Rocket 2.4 21:12:36 22° S 21:14:20 86° E 21:17:19 10° N
ATLAS 2AS CENTAUR R/B 3.8 21:12:28 16° SSE 21:16:13 25° ESE 21:21:40 10° ENE
Cosmos 2251 Rocket 3.9 21:14:26 17° S 21:18:12 46° ESE 21:23:20 10° NE
IRIDIUM 104 4.3 21:14:56 15° S 21:19:14 89° W 21:24:30 10° N
Okean 2 3.5 21:16:11 13° SSW 21:19:34 65° WNW 21:23:28 10° N
Cosmos 1892 2.0 21:18:27 25° S 21:20:01 70° E 21:23:01 10° NNE
USA 305 3.3 21:16:43 10° W 21:20:17 45° N 21:23:06 10° ENE
NOSS 2-1 (E) 4.0 21:17:08 10° NW 21:20:24 47° NE 21:24:24 11° ESE
USA 290 4.0 21:18:30 10° WSW 21:21:24 31° WNW 21:24:21 10° N
DELTA 2 DEB (DPAF) 3.9 21:18:03 10° NNE 21:21:58 77° WNW 21:25:12 15° SSW
COBE Rocket 4.2 21:17:08 10° N 21:22:10 67° WNW 21:27:01 10° SSW
Cosmos 1862 Rocket 3.5 21:19:28 18° S 21:22:42 78° E 21:27:08 10° NNE
Cosmos 1953 3.8 21:19:32 10° NNW 21:22:45 27° W 21:25:49 11° SSW
Cosmos 468 Rocket 4.1 21:17:43 10° NNW 21:22:53 70° ENE 21:26:36 19° SE
SeaSat 1 4.1 21:23:13 10° ESE 21:27:24 29° NE 21:31:35 10° NNW
IRIDIUM 114 4.4 21:24:04 15° S 21:28:24 76° W 21:33:38 10° N
Landsat 5 4.3 21:24:35 10° NNE 21:28:32 36° E 21:30:40 22° SSE
Cosmos 2219 4.2 21:23:25 10° SW 21:28:59 50° NW 21:34:37 10° NNE
SJ 16-02 3.0 21:27:45 15° SE 21:29:23 18° E 21:32:21 10° NE
Spot 4 4.2 21:26:40 19° SE 21:30:02 60° ENE 21:34:48 10° N
GRACE-FO 1 4.4 21:31:03 25° S 21:32:56 82° E 21:36:25 10° N
GRACE-FO 2 4.4 21:31:28 25° S 21:33:21 83° E 21:36:50 10° N
CZ-4C R/B 2.7 21:30:33 10° NNE 21:33:50 84° ESE 21:35:40 24° SSW
Cosmos 1603 3.7 21:28:31 10° NNW 21:34:09 76° WSW 21:38:04 20° SSE
USA 307 2.6 21:31:35 10° SW 21:34:56 48° SSE 21:38:45 10° ENE
Cosmos 2082 4.4 21:30:29 10° SW 21:36:05 55° NW 21:41:45 10° NNE
USA 59 Rocket -0.2 21:36:02 10° NW 21:39:28 77° NE 21:42:43 17° SE
Cosmos 1300 Rocket 4.5 21:40:50 10° N 21:45:00 39° ENE 21:47:47 18° SE
Cosmos 1763 Rocket 4.0 21:40:17 10° NNW 21:45:14 49° WSW 21:48:27 20° S
CZ-2C R/B 3.7 21:42:03 10° NNE 21:46:37 82° ESE 21:49:46 20° S
ARIANE 5 R/B 2.7 21:46:14 23° S 21:48:58 72° WSW 21:53:28 10° NNW
Geosat 4.4 21:45:03 10° NNE 21:50:00 63° NW 21:54:56 10° SW
MetOp-A 3.9 21:51:30 22° S 21:54:24 62° WSW 21:58:48 10° NNW
Cosmos 2227 4.3 21:51:51 10° SSW 21:57:29 80° WNW 22:03:08 10° NNE
PSLV R/B 4.1 22:00:58 10° NNE 22:05:08 45° E 22:07:21 25° SSE
Cosmos 1844 Rocket 2.7 22:01:37 13° SSW 22:06:43 86° WNW 22:12:26 10° NNE
Cosmos 1606 3.7 22:07:23 10° NNE 22:10:02 27° ENE 22:11:23 19° ESE
Cosmos 1703 Rocket 3.5 22:08:01 26° S 22:10:24 78° E 22:14:44 10° NNE
Cosmos 1782 Rocket 3.7 22:06:09 10° N 22:10:35 66° ENE 22:13:07 25° SSE
Cosmos 1271 Rocket 2.7 22:13:13 26° SSW 22:15:06 69° WNW 22:18:44 10° N
Cosmos 1844 3.8 22:16:10 13° SW 22:21:05 77° WNW 22:26:41 10° NNE
Cosmos 2228 Rocket 4.5 22:18:25 11° SW 22:22:12 32° WNW 22:26:13 10° N
PSLV R/B 4.5 22:20:10 10° NNE 22:23:55 41° E 22:25:36 26° SSE
Aureole 3 Rocket 4.4 22:26:28 10° NW 22:29:04 21° W 22:30:58 15° SW
SL-4 R/B 1.9 22:28:18 10° W 22:32:25 85° N 22:36:24 10° E
NOSS 2-1 (D) 3.9 22:29:03 10° WNW 22:32:26 41° SW 22:34:09 28° S
USA 234 4.4 22:29:04 10° ENE 22:34:13 24° SE 22:36:42 19° SSE
Cosmos 676 Rocket 4.0 22:32:07 21° SSW 22:35:43 90° WNW 22:41:00 10° NNE
Meteor 2-17 Rocket 4.4 22:34:33 22° S 22:38:38 88° WNW 22:44:44 10° N
ATLAS 3B R/B 3.1 22:33:19 10° NW 22:41:17 80° NE 22:48:59 10° SE
ALOS 2 3.4 22:39:35 23° SSW 22:41:48 40° W 22:45:58 10° NNW
Meteor 1-24 Rocket 3.9 22:43:34 21° SSW 22:47:45 75° WNW 22:53:38 10° N
Cosmos 1833 Rocket 2.7 22:42:20 10° NNW 22:48:00 83° ENE 22:52:21 17° SSE
Cosmos 1328 3.4 22:46:49 33° S 22:48:22 89° W 22:52:00 10° N
USA 305 2.5 22:45:59 10° WNW 22:49:07 51° NNE 22:51:21 10° E
Cosmos 2279 Rocket 4.0 22:46:01 10° N 22:52:14 79° E 22:56:36 21° SSE
Tsikada Rocket 4.1 22:49:22 21° SSW 22:53:41 76° WNW 23:00:01 10° N
Cosmos 371 Rocket 3.5 22:53:23 26° S 22:55:57 57° ESE 23:00:43 10° NNE
Cosmos 2242 Rocket 3.7 22:56:12 27° S 22:58:34 67° E 23:02:59 10° NNE
Cosmos 841 Rocket 4.3 22:58:45 10° NW 23:03:35 38° WSW 23:06:15 23° SSW
SeaSat 1 2.5 23:01:31 23° SSE 23:04:30 64° WSW 23:09:24 10° NW
H-2A R/B 3.2 23:02:26 16° SE 23:04:54 39° ENE 23:08:20 10° N
USA 307 3.0 23:01:15 10° W 23:05:00 66° NNW 23:08:58 10° ENE
ATLAS 2AS CENTAUR R/B 2.7 22:59:49 13° SW 23:06:22 89° SE 23:13:20 10° NE
SJ 16-02 1.7 23:04:19 20° SW 23:07:07 58° WNW 23:11:25 10° NNE
BREEZE-M DEB (TANK) 4.1 23:05:40 23° SSE 23:07:43 32° SE 23:17:48 10° ENE
Meteor 2-5 Rocket 4.4 23:10:07 17° SW 23:14:32 52° WNW 23:20:21 10° N
Cosmos 2180 Rocket 4.5 23:09:05 10° N 23:15:18 83° E 23:19:46 20° SSE
CZ-2C R/B 2.9 23:15:41 16° SSE 23:19:55 66° ENE 23:25:15 10° N
Cosmos 1814 Rocket 4.0 23:15:45 10° NNW 23:21:07 86° WSW 23:25:06 18° SSE
Sich 1 Rocket 4.2 23:17:38 10° N 23:22:01 52° ENE 23:25:23 17° SSE
Cosmos 1943 Rocket 3.3 23:20:08 17° SSE 23:23:23 31° ESE 23:28:10 10° NE
Cosmos 1850 Rocket 3.9 23:21:08 22° SSW 23:24:28 88° WNW 23:29:40 10° NNE
Cosmos 2082 Rocket 3.2 23:19:08 10° NNW 23:24:39 47° NE 23:30:09 10° SE
USA 59 Rocket 1.8 23:25:48 10° W 23:28:18 16° WSW 23:28:34 16° SW
Cosmos 304 Rocket 3.8 23:26:36 22° SSW 23:29:37 79° WNW 23:34:25 10° NNE
Cosmos 2278 Rocket 3.0 23:27:24 19° SSE 23:30:52 39° ESE 23:36:06 10° NE
Landsat 4 3.0 23:34:25 31° SSE 23:35:39 79° ENE 23:38:34 10° NNW
Cosmos 1025 Rocket 3.8 23:33:31 19° SSE 23:36:11 41° E 23:40:13 10° NNE
Cosmos 968 Rocket 3.7 23:33:29 19° SW 23:37:10 68° WNW 23:42:26 10° NNE
Cosmos 2151 Rocket 3.5 23:36:15 10° NNW 23:40:42 78° W 23:43:29 23° S
Okean 2 Rocket 3.1 23:38:16 10° N 23:42:47 89° W 23:45:45 21° S
Cosmos 1606 4.0 23:40:46 10° NW 23:42:56 18° W 23:43:44 16° WSW
Okean 1 Rocket 3.2 23:39:58 10° N 23:44:27 75° E 23:47:42 18° SSE
IDEFIX/ARIANE 42P 3.8 23:42:41 10° NNE 23:47:23 32° E 23:51:36 12° SSE
Cosmos 1378 Rocket 3.6 23:44:46 24° SSW 23:47:24 74° WNW 23:51:47 10° N
SL-24 R/B - RUBIN 2 4.4 23:45:42 10° NW 23:50:11 36° WSW 23:52:24 22° S
